Location: Newark
(23.6997°S, 137.8000°E)
Time: 20:32:16
(UTC+00:00)

Hubble Space Telescope - Visible Passes

Search period start: 11 December 2019 00:00
Search period end: 21 December 2019 00:00
Orbit: 536 x 540 km, 28.5° (Epoch: 11 December)

Date Brightness Start Highest point End Pass type
(mag) Time Alt. Az. Time Alt. Az. Time Alt. Az.
11 Dec 0.9 09:45:42 10° WNW 09:49:51 85° SSW 09:54:01 10° ESE visible
11 Dec 1.7 11:27:16 10° WSW 11:31:15 43° S 11:31:57 39° SSE visible
12 Dec 1.8 11:16:46 10° WSW 11:20:44 42° S 11:22:04 31° SE visible
13 Dec 1.8 11:06:16 10° WSW 11:10:13 41° S 11:12:06 25° SE visible
14 Dec 1.8 10:55:44 10° WSW 10:59:42 42° S 11:02:02 21° ESE visible
14 Dec 3.8 12:36:59 10° WSW 12:37:22 12° WSW 12:37:22 12° WSW visible
15 Dec 1.7 10:45:12 10° WSW 10:49:11 44° S 10:51:55 18° ESE visible
15 Dec 3.5 12:26:24 10° WSW 12:27:15 16° WSW 12:27:15 16° WSW visible
16 Dec 1.5 10:34:38 10° WSW 10:38:40 48° S 10:41:46 16° ESE visible
16 Dec 3.2 12:15:50 10° WSW 12:17:05 19° WSW 12:17:05 19° WSW visible
17 Dec 1.3 10:24:03 10° WSW 10:28:08 53° S 10:31:36 14° E visible
17 Dec 2.9 12:05:17 10° W 12:06:56 22° W 12:06:56 22° W visible
18 Dec 1.1 10:13:28 10° WSW 10:17:36 61° SSE 10:21:27 11° E visible
18 Dec 2.6 11:54:47 10° W 11:56:46 25° W 11:56:46 25° W visible
19 Dec 0.9 10:02:52 10° WSW 10:07:02 72° SSE 10:11:10 10° E visible
19 Dec 2.5 11:44:21 10° W 11:46:37 25° WNW 11:46:37 25° WNW visible
20 Dec 0.8 09:52:17 10° WSW 09:56:28 86° SSE 10:00:37 10° ENE visible
20 Dec 2.5 11:34:00 10° W 11:36:30 23° NW 11:36:30 23° NW visible
